Location: Monrovia
(34.7865°N, 86.7139°W)
Time: 23:38:42
(UTC+00:00)

PSLV R/B - Pass Details

Date: 14 July 2020
Orbit: 595 x 628 km, 97.9° (Epoch: 12 August)

Event Time Altitude Azimuth Distance (km) Brightness Sun altitude
Rises 10:09:46 0° 2° (N) 2,892 7.5 -7.0°
Reaches altitude 10° 10:12:03 10° 354° (N) 1,988 6.5 -6.6°
Maximum altitude 10:16:02 37° 287° (WNW) 968 4.3 -5.9°
Drops below altitude 10° 10:20:02 10° 220° (SW) 1,990 5.6 -5.2°
Enters shadow 10:21:32 - 214° (SW) 2,579 6.2 -5.0°
